Terminal Aerodrome Forecast
Issued by NWS Denver/Boulder, CO

Home | Current Version | Previous Version | Text Only | Print | Product List | Glossary On
Versions: 1 2 3 4 5 6 7 8 9 10 11 12 13 14 15 16 17 18 19 20 21 22 23 24 25 26 27 28 29 30 31 32 33 34 35 36 37 38 39 40 41 42 43 44 45 46 47 48 49 50
000
FTUS45 KBOU 300214 AAB
TAFDEN
TAF AMD
KDEN 300214Z 3002/0106 34018G26KT P6SM SCT015 OVC035
      TEMPO 3002/3004 -RA BKN015
     FM300400 28018G26KT P6SM SCT030 BKN060
     FM300600 21010KT P6SM SCT060 BKN120
     FM301700 25007KT P6SM FEW070 SCT120
     FM302100 33008KT P6SM SCT070 SCT120
     FM010200 20008KT P6SM FEW070 BKN120=

USA.gov is the U.S. government's official web portal to all federal, state and local government web resources and services.